Location: G�kdere
(37.0328°N, 30.9000°E)
Time: 04:53:25
(UTC+00:00)

Cosmos 1503 Rocket - Pass Details

Date: 03 March 2021
Orbit: 753 x 790 km, 74.0° (Epoch: 19 April)

Event Time Altitude Azimuth Distance (km) Brightness Sun altitude
Rises 16:51:11 0° 348° (NNW) 3,221 7.4 -12.5°
Reaches altitude 10° 16:53:39 10° 354° (N) 2,288 6.6 -13.0°
Maximum altitude 16:58:40 48° 69° (ENE) 974 4.2 -14.0°
Drops below altitude 10° 17:03:37 10° 143° (SE) 2,269 6.1 -15.0°
Enters shadow 17:04:02 - 145° (SE) 2,420 6.2 -15.1°
